LVCAM MZBZ-MMUN

Flight info

Callsign LVCAM
Flight time N/A
Altitude 31000
Route LITRA1D LITRA DCT CTM UG765 PAULE PAULE3G
Aircraft A320/M-SDE3FGHIRWY/LB1

Departure

Time 2026-04-25 17:39
Airport Philip S. W. Goldson International Airport (MZBZ)

Arrival

Time N/A
Airport Cancún International Airport (MMUN)
Time Latitude Longitude Altitude Speed Heading
2026-04-25 17:06 17.53701 -88.30692 18 ft 0 kts 167°
2026-04-25 17:30 17.53717 -88.30695 17 ft 4 kts 170°
2026-04-25 17:30 17.53744 -88.30699 17 ft 4 kts 179°
2026-04-25 17:31 17.53771 -88.30697 17 ft 4 kts 193°
2026-04-25 17:31 17.53780 -88.30694 18 ft 0 kts 194°
2026-04-25 17:34 17.53777 -88.30695 17 ft 1 kts 197°
2026-04-25 17:34 17.53767 -88.30708 18 ft 4 kts 236°
2026-04-25 17:35 17.53752 -88.30752 17 ft 9 kts 255°
2026-04-25 17:35 17.53737 -88.30833 17 ft 14 kts 252°
2026-04-25 17:35 17.53708 -88.30948 17 ft 19 kts 258°
2026-04-25 17:35 17.53675 -88.31091 17 ft 21 kts 256°
2026-04-25 17:36 17.53641 -88.31246 17 ft 23 kts 256°
2026-04-25 17:36 17.53605 -88.31412 19 ft 24 kts 258°
2026-04-25 17:36 17.53565 -88.31587 17 ft 25 kts 256°
2026-04-25 17:36 17.53541 -88.31708 17 ft 16 kts 261°
2026-04-25 17:37 17.53580 -88.31775 20 ft 11 kts 343°
2026-04-25 17:37 17.53590 -88.31778 19 ft 0 kts 345°
2026-04-25 17:38 17.53624 -88.31789 19 ft 9 kts 342°
2026-04-25 17:38 17.53701 -88.31761 18 ft 28 kts 66°
2026-04-25 17:39 17.53787 -88.31360 15 ft 89 kts 77°
2026-04-25 17:39 17.53977 -88.30492 18 ft 157 kts 77°
2026-04-25 17:39 17.54255 -88.29292 634 ft 174 kts 79°
2026-04-25 17:39 17.54509 -88.28037 1578 ft 178 kts 79°
2026-04-25 17:40 17.54792 -88.26738 2416 ft 193 kts 80°
2026-04-25 17:40 17.55134 -88.25322 2790 ft 212 kts 71°
2026-04-25 17:40 17.56150 -88.24087 3084 ft 246 kts 31°
2026-04-25 17:40 17.57870 -88.23555 3543 ft 270 kts 10°
2026-04-25 17:41 17.59770 -88.23429 4342 ft 277 kts
2026-04-25 17:41 17.61714 -88.23445 5218 ft 282 kts
2026-04-25 17:41 17.63684 -88.23489 5975 ft 287 kts
2026-04-25 17:41 17.65683 -88.23511 6243 ft 288 kts
2026-04-25 17:42 17.67682 -88.23500 6325 ft 288 kts
2026-04-25 17:42 17.69676 -88.23460 6328 ft 287 kts
2026-04-25 17:42 17.71668 -88.23509 6330 ft 288 kts 352°
2026-04-25 17:42 17.73661 -88.23887 6923 ft 292 kts 351°
2026-04-25 17:43 17.75658 -88.24263 7810 ft 293 kts 351°
2026-04-25 17:43 17.77668 -88.24636 8607 ft 296 kts 351°
2026-04-25 17:43 17.79700 -88.25013 9381 ft 298 kts 351°
2026-04-25 17:43 17.81746 -88.25396 10151 ft 300 kts 351°
2026-04-25 17:44 17.83812 -88.25782 10785 ft 309 kts 351°
2026-04-25 17:44 17.86000 -88.26188 10988 ft 332 kts 351°
2026-04-25 17:44 17.88343 -88.26624 11134 ft 353 kts 351°
2026-04-25 17:44 17.90795 -88.27085 11586 ft 362 kts 350°
2026-04-25 17:45 17.93272 -88.27549 12317 ft 362 kts 349°
2026-04-25 17:45 17.94921 -88.27857 12831 ft 362 kts 349°
2026-04-25 17:45 17.98238 -88.28478 13716 ft 366 kts 349°
2026-04-25 17:45 18.00749 -88.28950 14325 ft 369 kts 349°
2026-04-25 17:46 18.03280 -88.29429 14907 ft 372 kts 349°
2026-04-25 17:46 18.05836 -88.29913 15440 ft 376 kts 349°
2026-04-25 17:46 18.08422 -88.30402 15968 ft 380 kts 349°
2026-04-25 17:46 18.11027 -88.30896 16486 ft 383 kts 349°
2026-04-25 17:47 18.13651 -88.31389 16996 ft 385 kts 349°
2026-04-25 17:47 18.16296 -88.31887 17457 ft 389 kts 349°
2026-04-25 17:47 18.18962 -88.32390 17915 ft 392 kts 349°
2026-04-25 17:47 18.21671 -88.32764 18358 ft 396 kts 355°
2026-04-25 17:48 18.27217 -88.32886 19213 ft 403 kts 357°
2026-04-25 17:48 18.30026 -88.32940 19634 ft 405 kts 357°
2026-04-25 17:48 18.32833 -88.32995 20051 ft 408 kts 357°
2026-04-25 17:49 18.35672 -88.33052 20453 ft 411 kts 357°
2026-04-25 17:49 18.38532 -88.33110 20842 ft 414 kts 357°
2026-04-25 17:49 18.41414 -88.33167 21224 ft 416 kts 357°
2026-04-25 17:49 18.44313 -88.33225 21618 ft 419 kts 356°
2026-04-25 17:50 18.47237 -88.33225 21983 ft 423 kts
2026-04-25 17:50 18.50153 -88.32752 22334 ft 429 kts 11°
2026-04-25 17:50 18.52988 -88.31706 22678 ft 436 kts 22°
2026-04-25 17:50 18.55625 -88.30101 23004 ft 443 kts 31°
2026-04-25 17:51 18.58183 -88.28288 23327 ft 445 kts 31°
2026-04-25 17:51 18.60755 -88.26472 23643 ft 448 kts 30°
2026-04-25 17:51 18.63350 -88.24645 23943 ft 450 kts 30°
2026-04-25 17:51 18.65946 -88.22825 24243 ft 452 kts 30°
2026-04-25 17:52 18.68560 -88.20995 24528 ft 455 kts 30°
2026-04-25 17:52 18.70306 -88.19773 24722 ft 456 kts 30°
2026-04-25 17:52 18.73834 -88.17296 25117 ft 460 kts 30°
2026-04-25 17:52 18.76498 -88.15425 25405 ft 462 kts 30°
2026-04-25 17:53 18.79171 -88.13542 25680 ft 464 kts 30°
2026-04-25 17:53 18.81858 -88.11648 25954 ft 466 kts 30°
2026-04-25 17:53 18.84555 -88.09745 26208 ft 469 kts 30°
2026-04-25 17:53 18.87271 -88.07831 26460 ft 471 kts 30°
2026-04-25 17:54 18.89998 -88.05912 26712 ft 473 kts 30°
2026-04-25 17:54 18.92735 -88.03987 26964 ft 475 kts 30°
2026-04-25 17:54 18.95483 -88.02052 27209 ft 477 kts 30°
2026-04-25 17:54 18.98182 -88.00150 27438 ft 479 kts 30°
2026-04-25 17:55 18.99105 -87.99499 27525 ft 480 kts 30°
2026-04-25 17:56 19.17571 -87.86446 29553 ft 482 kts 29°
2026-04-25 17:56 19.20353 -87.84477 29888 ft 482 kts 29°
2026-04-25 17:57 19.23134 -87.82507 30206 ft 482 kts 29°
2026-04-25 17:57 19.25913 -87.80539 30537 ft 482 kts 29°
2026-04-25 17:57 19.28692 -87.78568 30827 ft 482 kts 29°
2026-04-25 17:58 19.34264 -87.74618 30917 ft 484 kts 29°
2026-04-25 17:58 19.39847 -87.70660 30915 ft 484 kts 29°
2026-04-25 17:59 19.45432 -87.66702 30915 ft 484 kts 29°
2026-04-25 17:59 19.51014 -87.62736 30916 ft 484 kts 29°
2026-04-25 18:00 19.56599 -87.58757 30592 ft 485 kts 29°
2026-04-25 18:00 19.59388 -87.56764 29803 ft 486 kts 29°
2026-04-25 18:00 19.62195 -87.54758 28499 ft 486 kts 29°
2026-04-25 18:00 19.64975 -87.52768 27263 ft 478 kts 29°
2026-04-25 18:01 19.67702 -87.50814 26002 ft 470 kts 30°
2026-04-25 18:01 19.70385 -87.48890 24773 ft 465 kts 30°
2026-04-25 18:01 19.73048 -87.46986 24028 ft 452 kts 30°
2026-04-25 18:01 19.75558 -87.45185 23896 ft 422 kts 29°
2026-04-25 18:02 19.77949 -87.43469 23928 ft 413 kts 29°
2026-04-25 18:02 19.80288 -87.41737 23923 ft 412 kts 34°
2026-04-25 18:02 19.82374 -87.39640 23871 ft 417 kts 44°
2026-04-25 18:02 19.84145 -87.37202 23663 ft 418 kts 49°
2026-04-25 18:03 19.85854 -87.34727 23495 ft 417 kts 49°
2026-04-25 18:03 19.87541 -87.32276 23329 ft 415 kts 49°
2026-04-25 18:03 19.89231 -87.29813 23158 ft 414 kts 49°
2026-04-25 18:03 19.90922 -87.27352 22990 ft 413 kts 49°
2026-04-25 18:04 19.92603 -87.24911 22826 ft 412 kts 49°
2026-04-25 18:04 19.94302 -87.22447 22657 ft 410 kts 49°
2026-04-25 18:04 19.95984 -87.20012 22482 ft 409 kts 49°
2026-04-25 18:04 19.97663 -87.17583 22326 ft 408 kts 49°
2026-04-25 18:05 19.99337 -87.15159 22159 ft 407 kts 49°
2026-04-25 18:05 20.01005 -87.12741 21995 ft 406 kts 49°
2026-04-25 18:05 20.02666 -87.10328 21828 ft 405 kts 49°
2026-04-25 18:05 20.04323 -87.07919 21664 ft 404 kts 49°
2026-04-25 18:06 20.05974 -87.05516 21498 ft 403 kts 49°
2026-04-25 18:06 20.07621 -87.03118 21333 ft 401 kts 49°
2026-04-25 18:06 20.09262 -87.00731 21170 ft 400 kts 49°
2026-04-25 18:06 20.10904 -86.98346 21011 ft 400 kts 49°
2026-04-25 18:07 20.12543 -86.95967 20845 ft 399 kts 49°
2026-04-25 18:07 20.14164 -86.93606 20686 ft 398 kts 49°
2026-04-25 18:07 20.15787 -86.91239 20523 ft 396 kts 49°
2026-04-25 18:07 20.17412 -86.88875 20363 ft 396 kts 49°
2026-04-25 18:08 20.19028 -86.86519 20202 ft 394 kts 49°
2026-04-25 18:08 20.20638 -86.84167 20046 ft 393 kts 49°
2026-04-25 18:08 20.22240 -86.81820 19860 ft 393 kts 50°
2026-04-25 18:08 20.23857 -86.79463 19199 ft 396 kts 49°
2026-04-25 18:09 20.25469 -86.77131 18838 ft 389 kts 49°
2026-04-25 18:09 20.27056 -86.74838 18061 ft 382 kts 49°
2026-04-25 18:09 20.28622 -86.72581 17353 ft 380 kts 50°
2026-04-25 18:09 20.29669 -86.71075 17052 ft 378 kts 49°
2026-04-25 18:10 20.31726 -86.68109 16394 ft 369 kts 49°
2026-04-25 18:10 20.33240 -86.65921 15571 ft 366 kts 50°
2026-04-25 18:10 20.34712 -86.63786 15216 ft 348 kts 50°
2026-04-25 18:10 20.36110 -86.61780 14952 ft 331 kts 45°
2026-04-25 18:11 20.37801 -86.60265 14994 ft 313 kts 25°
2026-04-25 18:11 20.39741 -86.59456 14952 ft 306 kts
2026-04-25 18:11 20.41825 -86.59374 14643 ft 298 kts 348°
2026-04-25 18:11 20.43814 -86.59899 14382 ft 294 kts 342°
2026-04-25 18:12 20.45778 -86.60474 14130 ft 293 kts 343°
2026-04-25 18:12 20.47735 -86.61039 13877 ft 292 kts 343°
2026-04-25 18:12 20.49683 -86.61601 13624 ft 290 kts 343°
2026-04-25 18:12 20.51627 -86.62162 13377 ft 289 kts 343°
2026-04-25 18:13 20.53564 -86.62719 13131 ft 289 kts 344°
2026-04-25 18:13 20.55494 -86.63270 12881 ft 287 kts 344°
2026-04-25 18:13 20.57409 -86.63817 12633 ft 286 kts 344°
2026-04-25 18:14 20.61233 -86.64911 12139 ft 284 kts 344°
2026-04-25 18:14 20.63137 -86.65458 11866 ft 284 kts 344°
2026-04-25 18:14 20.65033 -86.66002 11513 ft 283 kts 344°
2026-04-25 18:14 20.66903 -86.66540 11176 ft 283 kts 344°
2026-04-25 18:15 20.68816 -86.67090 10834 ft 283 kts 345°
2026-04-25 18:15 20.70715 -86.67635 10481 ft 284 kts 344°
2026-04-25 18:15 20.72616 -86.68182 10144 ft 284 kts 344°
2026-04-25 18:15 20.74518 -86.68733 9804 ft 284 kts 344°
2026-04-25 18:16 20.76424 -86.69284 9557 ft 285 kts 344°
2026-04-25 18:16 20.78326 -86.69834 9374 ft 280 kts 344°
2026-04-25 18:16 20.81907 -86.71003 9118 ft 259 kts 331°
2026-04-25 18:17 20.83288 -86.72145 9018 ft 252 kts 311°
2026-04-25 18:17 20.84297 -86.73647 8873 ft 252 kts 304°
2026-04-25 18:17 20.85263 -86.75186 8649 ft 251 kts 304°
2026-04-25 18:17 20.86231 -86.76723 8382 ft 250 kts 304°
2026-04-25 18:18 20.87198 -86.78262 8116 ft 250 kts 304°
2026-04-25 18:18 20.88162 -86.79799 7832 ft 249 kts 304°
2026-04-25 18:18 20.89123 -86.81331 7556 ft 248 kts 304°
2026-04-25 18:18 20.90075 -86.82850 7290 ft 249 kts 304°
2026-04-25 18:19 20.91032 -86.84379 7045 ft 248 kts 303°
2026-04-25 18:19 20.91985 -86.85899 6776 ft 247 kts 304°
2026-04-25 18:19 20.92942 -86.87420 6500 ft 247 kts 303°
2026-04-25 18:19 20.93896 -86.88936 6233 ft 247 kts 304°
2026-04-25 18:20 20.94848 -86.90455 5966 ft 246 kts 303°
2026-04-25 18:20 20.95799 -86.91969 5681 ft 245 kts 303°
2026-04-25 18:20 20.96748 -86.93482 5408 ft 246 kts 303°
2026-04-25 18:20 20.97695 -86.94994 5143 ft 245 kts 303°
2026-04-25 18:21 20.98639 -86.96511 4843 ft 245 kts 303°
2026-04-25 18:21 20.99585 -86.98033 4480 ft 246 kts 303°
2026-04-25 18:21 21.00529 -86.99542 4268 ft 244 kts 303°
2026-04-25 18:21 21.01473 -87.01048 4044 ft 244 kts 303°
2026-04-25 18:22 21.02411 -87.02550 3750 ft 242 kts 303°
2026-04-25 18:22 21.03029 -87.03533 3543 ft 243 kts 303°
2026-04-25 18:22 21.04278 -87.05525 3141 ft 241 kts 303°
2026-04-25 18:22 21.05188 -87.06977 3015 ft 230 kts 303°
2026-04-25 18:23 21.06064 -87.08377 2819 ft 227 kts 303°
2026-04-25 18:23 21.06938 -87.09777 2511 ft 228 kts 302°
2026-04-25 18:23 21.07819 -87.11188 2262 ft 228 kts 303°
2026-04-25 18:23 21.08677 -87.12563 2143 ft 221 kts 303°
2026-04-25 18:24 21.09546 -87.13869 2123 ft 213 kts 303°
2026-04-25 18:24 21.10380 -87.15156 2119 ft 210 kts 310°
2026-04-25 18:24 21.11511 -87.16036 2122 ft 195 kts 340°
2026-04-25 18:24 21.12773 -87.16232 2099 ft 176 kts
2026-04-25 18:25 21.13880 -87.15859 2100 ft 163 kts 34°
2026-04-25 18:25 21.14710 -87.15086 2102 ft 156 kts 57°
2026-04-25 18:25 21.15187 -87.14067 2110 ft 155 kts 78°
2026-04-25 18:25 21.15338 -87.12869 2131 ft 174 kts 87°
2026-04-25 18:26 21.15464 -87.11531 2119 ft 184 kts 86°
2026-04-25 18:26 21.15596 -87.10169 2110 ft 185 kts 86°
2026-04-25 18:26 21.15731 -87.08800 2104 ft 185 kts 86°
2026-04-25 18:26 21.15698 -87.07435 2100 ft 182 kts 104°
2026-04-25 18:27 21.15254 -87.06270 2095 ft 159 kts 124°
2026-04-25 18:27 21.14659 -87.05319 2106 ft 150 kts 125°
2026-04-25 18:27 21.14089 -87.04403 2109 ft 147 kts 125°
2026-04-25 18:27 21.13526 -87.03498 2103 ft 146 kts 125°
2026-04-25 18:28 21.12963 -87.02597 2106 ft 146 kts 125°
2026-04-25 18:28 21.12400 -87.01697 2107 ft 146 kts 125°
2026-04-25 18:28 21.11840 -87.00798 2108 ft 146 kts 125°
2026-04-25 18:29 21.10713 -86.98992 2088 ft 146 kts 125°
2026-04-25 18:29 21.10151 -86.98094 1976 ft 144 kts 125°
2026-04-25 18:30 21.08498 -86.95445 1439 ft 142 kts 125°
2026-04-25 18:30 21.07952 -86.94572 1261 ft 141 kts 125°
2026-04-25 18:30 21.07409 -86.93703 1073 ft 141 kts 125°
2026-04-25 18:30 21.06867 -86.92836 887 ft 141 kts 124°
2026-04-25 18:31 21.06323 -86.91965 688 ft 140 kts 125°
2026-04-25 18:31 21.05780 -86.91096 512 ft 141 kts 125°
2026-04-25 18:31 21.05332 -86.90360 348 ft 141 kts 124°
2026-04-25 18:31 21.04800 -86.89484 178 ft 142 kts 126°
2026-04-25 18:32 21.04425 -86.88911 47 ft 138 kts 126°